Location: Stonelick Lake State Park
(39.2170°N, 84.0850°W)
Time: 17:42:43
(UTC-04:00)

Daily predictions for brighter satellites

Satellite Brightness Start Highest point End
(mag) Time Altitude Azimuth Time Altitude Azimuth Time Altitude Azimuth
Spot 2 Rocket 3.6 20:43:13 10° SSE 20:48:12 59° ENE 20:53:13 10° N
USA 267 4.2 20:45:51 10° NE 20:52:10 53° NW 20:58:28 10° WSW
Cosmos 1980 Rocket 2.2 20:47:14 10° S 20:52:50 68° ESE 20:58:30 10° NNE
Cosmos 1110 Rocket 4.3 20:51:23 10° SSW 20:56:38 76° WNW 21:01:58 10° NNE
SL-8 R/B 4.0 20:54:09 10° WNW 20:58:57 68° SW 21:03:42 10° SE
CZ-2D R/B 3.3 20:55:25 10° SSE 20:59:15 64° ENE 21:03:08 10° N
Helios 1B rocket 3.2 20:55:52 10° NE 20:59:31 31° E 21:03:10 10° SSE
Lacrosse 4 Rocket 3.3 20:57:14 10° N 21:00:09 17° NE 21:03:04 10° E
Resurs 1-3 3.6 20:56:04 10° SSE 21:00:26 73° ENE 21:04:50 10° N
Cosmos 2227 Rocket 4.1 20:55:34 10° NW 21:00:27 31° WSW 21:05:19 10° SSW
Meteor 1-29 4.2 20:58:38 10° NE 21:01:26 22° E 21:04:13 10° SSE
Cosmos 1869 Rocket 3.7 21:00:45 10° N 21:05:13 61° E 21:09:38 10° SSE
Cosmos 1900 4.5 21:00:56 10° NNW 21:06:02 70° ENE 21:11:09 10° SE
Cosmos 1825 3.7 21:03:20 10° NNE 21:06:10 20° ENE 21:08:25 13° ESE
SL-16 R/B 2.9 21:03:12 10° SSE 21:08:03 30° ESE 21:12:55 10° NE
Cosmos 1302 Rocket 3.9 21:02:54 10° S 21:08:03 68° ESE 21:13:14 10° NNE
Envisat 3.6 21:03:27 10° SE 21:08:07 38° ENE 21:12:48 10° N
Milstar 3 3.7 21:04:24 10° WSW 21:12:05 37° S 21:17:22 13° ESE
Cosmos 2242 Rocket 4.4 21:08:49 10° SSE 21:12:49 31° E 21:16:47 10° NNE
Cosmos 1939 Rocket 3.9 21:09:41 12° SE 21:12:55 29° ENE 21:16:25 10° N
CZ-4B DEB 3.5 21:15:52 16° SE 21:17:49 32° ENE 21:20:35 10° N
ATLAS 5 CENTAUR R/B 4.1 21:15:45 10° N 21:19:47 18° NE 21:24:03 10° E
USA 234 3.4 21:20:01 14° ESE 21:25:43 70° NE 21:32:15 10° NW
OAO 3 Rocket 3.6 21:21:15 10° WSW 21:25:55 45° S 21:29:18 18° ESE
Meteor 2-20 4.4 21:20:07 10° N 21:26:13 68° E 21:32:19 10° SSE
Resurs 01 Rocket 2.7 21:24:49 10° S 21:29:05 45° W 21:33:22 10° NNW
Atlas Centaur 2 3.8 21:24:20 10° SSW 21:30:09 26° SSE 21:34:13 18° ESE
Helios 1A 2.9 21:26:56 10° SSE 21:31:09 80° ENE 21:35:25 10° N
SAR-Lupe-4 3.5 21:32:48 13° SSE 21:35:56 88° ENE 21:39:32 10° NNW
Molniya-1 3.7 21:34:43 10° SW 21:36:20 42° NW 21:38:21 10° NNE
Cosmos 2227 4.2 21:30:44 10° NNW 21:36:32 88° ENE 21:41:23 15° SSE
FALCON 9 R/B 1.3 21:36:01 10° WSW 21:38:04 26° S 21:38:04 26° S
Cosmos 2142 Rocket 4.4 21:35:44 10° S 21:41:50 85° E 21:48:01 10° N
ERS-1 Rocket 3.5 21:42:11 23° SE 21:44:46 41° ENE 21:49:28 10° N
Cosmos 1408 2.5 21:44:40 10° N 21:48:22 69° E 21:50:06 29° SSE
Cosmos 1486 Rocket 4.4 21:43:58 10° NNW 21:49:07 62° WSW 21:53:59 12° S
ERBS 2.4 21:48:20 10° NW 21:51:46 64° NE 21:52:42 43° ESE
Cosmos 1455 4.3 21:48:32 10° SW 21:51:52 29° WNW 21:55:12 10° NNW
SAR-Lupe-1 4.4 21:50:59 18° S 21:53:28 63° WSW 21:57:02 10° NNW
Cosmos 1869 4.1 21:51:55 10° SSW 21:55:44 52° W 21:59:36 10° N
Cosmos 220 Rocket 4.0 21:55:53 10° NNW 22:00:21 88° WSW 22:02:28 31° SSE
CZ-3B DEB 3.5 22:01:10 10° WSW 22:01:25 10° WSW 22:01:41 10° WSW
SeaSat 1 3.4 22:00:11 26° E 22:01:46 32° NE 22:06:09 10° N
Cosmos 1992 Rocket 3.9 21:56:45 10° S 22:01:56 67° ESE 22:07:08 10° NNE
OTV 4 3.1 22:02:37 10° SW 22:03:10 11° SW 22:03:10 11° SW
Cosmos 2026 Rocket 4.0 21:58:20 10° N 22:04:35 81° W 22:09:53 14° S
USA 229 DEB 4.3 22:04:46 29° ESE 22:05:14 30° ESE 22:11:02 10° NE
USA 229 4.4 22:05:03 29° ESE 22:05:21 29° ESE 22:11:07 10° NE
H-2A R/B 4.4 22:07:13 11° ENE 22:07:13 11° ENE 22:07:48 10° NE
MetOp-A 4.4 22:08:21 36° ESE 22:10:09 51° ENE 22:15:20 10° N
Cosmos 1908 Rocket 4.2 22:07:01 10° N 22:11:02 36° ENE 22:11:04 36° E
Cosmos 1933 3.2 22:14:41 37° S 22:16:12 89° W 22:20:16 10° N
Cosmos 1503 Rocket 4.3 22:15:05 10° NNW 22:20:17 64° WSW 22:22:48 30° S
YAOGAN 6 2.8 22:20:14 54° SSW 22:20:53 68° WSW 22:24:31 10° NNW
Cosmos 2263 Rocket 2.1 22:17:13 10° NNW 22:22:47 71° ENE 22:24:22 47° SE
Abrixas rocket 4.5 22:20:42 10° WNW 22:23:25 23° NNW 22:25:18 15° NNE
Cosmos 1354 Rocket 4.4 22:18:26 10° NNW 22:23:37 59° WSW 22:26:09 29° S
H-2A R/B 3.0 22:24:03 29° ENE 22:24:12 30° ENE 22:28:29 10° N
Cosmos 2322 Rocket 2.7 22:19:20 10° SW 22:24:51 59° WNW 22:30:25 10° NNE
Cosmos 1655 Rocket 4.3 22:20:02 10° NNW 22:26:23 68° W 22:30:51 20° S
Terra 3.7 22:26:53 17° ENE 22:26:53 17° ENE 22:29:28 10° NNE
Cosmos 397 4.2 22:22:41 10° NNW 22:26:56 88° SW 22:27:17 74° SSE
Cosmos 1733 Rocket 3.8 22:28:27 10° NNW 22:32:47 51° W 22:34:27 32° SSW
Meteor 2-10 Rocket 3.7 22:30:48 33° S 22:33:32 82° E 22:39:22 10° N
Cosmos 2360 Rocket 2.1 22:34:16 46° S 22:35:50 66° ESE 22:41:28 10° NNE
Cosmos 1862 Rocket 4.5 22:34:03 18° SSW 22:37:04 47° W 22:41:24 10° N
SL-08 RB Rocket 4.0 22:37:52 51° ENE 22:37:52 51° ENE 22:42:06 10° N
Lacrosse 4 Rocket 2.1 22:34:55 10° NW 22:39:06 48° WSW 22:39:39 45° SW
Cosmos 2322 3.6 22:40:41 59° SE 22:41:15 63° ESE 22:46:54 10° NNE
Cosmos 1825 4.3 22:38:38 10° NW 22:41:41 23° W 22:43:21 17° SW
NOAA 11 4.2 22:42:49 51° S 22:44:15 80° WSW 22:49:47 10° NNW
Cosmos 968 Rocket 3.4 22:41:03 10° NNW 22:46:13 66° ENE 22:46:23 65° E
YAOGAN 11 4.2 22:50:13 67° WSW 22:50:17 67° WSW 22:54:39 10° NNW
SL-16 R/B 3.7 22:46:48 10° SW 22:52:00 37° WNW 22:57:13 10° N
Cosmos 2266 Rocket 3.9 22:46:07 10° N 22:52:25 84° E 22:53:45 59° SSE
Okean 1-7 4.1 22:55:18 36° NNE 22:55:18 36° NNE 22:58:05 10° NNE
SPOT 5 2.8 22:54:50 77° SW 22:55:02 79° WSW 22:59:48 10° NNW
Cosmos 1703 Rocket 3.8 22:57:22 66° NNW 22:57:22 66° NNW 23:01:15 10° N
Cosmos 2221 Rocket 4.3 23:00:03 45° NNE 23:00:03 45° NNE 23:03:10 10° N
ATLAS 5 CENTAUR R/B 2.3 22:59:15 10° NNW 23:05:20 82° ENE 23:05:54 74° ESE
BREEZE-M DEB (TANK) 4.5 22:48:43 10° NW 23:06:17 58° SW 23:07:31 50° SSW
Nimbus 7 Rocket 4.4 23:00:51 10° NNE 23:06:48 81° WNW 23:08:11 55° SSW
USA 234 4.3 23:07:21 28° SSW 23:08:59 31° SW 23:14:43 10° WNW
SPOT 1/Viking Rocket 3.6 23:11:28 79° WNW 23:11:28 79° WNW 23:16:32 10° NNW
ARGOS 3.4 23:11:51 57° WSW 23:12:14 59° W 23:17:33 10° NNW
Cosmos 2278 Rocket 4.0 23:10:27 10° N 23:14:18 19° NE 23:14:18 19° NE
Atlas Centaur 2 3.7 23:11:45 10° WSW 23:16:54 37° SSW 23:16:54 37° SSW
Cosmos 1844 Rocket 3.3 23:21:12 10° NNW 23:25:44 46° NNE 23:25:44 46° NNE
MOS 1-B Rocket 4.4 23:26:12 50° SW 23:26:55 53° W 23:32:31 10° NNW
Nadezhda 2 Rocket 4.4 23:21:37 10° N 23:28:05 85° W 23:28:13 84° SW
SeaSat 1 3.9 23:39:59 30° W 23:39:59 30° W 23:43:38 10° NW
H-2A R/B 3.9 23:44:20 29° NNW 23:44:20 29° NNW 23:46:32 10° NNW
Cosmos 2219 Rocket 3.7 23:45:20 26° NE 23:45:20 26° NE 23:47:48 10° NNE
S3M 4.5 23:51:35 51° NNE 23:51:35 51° NNE 23:56:10 10° NNE
